STARLINK-4201, 52856

Orbit data source: Space-Track

STARLINK-4201, 52856 is a payload satellite owned by SpaceX/Seattle (US) in LEO that was launched on Fri, 17 Jun 2022 UTC via an FALCON 9 launch vehicle from the Air Force Eastern Test Range (AFETR). Payload-class satellites include a variety of spacecraft equipped with specific instruments for various scientific and technological missions. These include communications satellites like Starlink; space stations such as the ISS; scientific satellites like the Hubble; Earth observation satellites from companies like Planet Labs, Umbra, and HawkEye 360; GPS; miniature CubeSats for education and research; and military/defense satellites.

Loading next visibility...
Identifier
52856, 2022-062AC
Orbit
LEO
Country
Flag of USUS
Related business
Manufacturer
SpaceX/Seattle
Mission
Operational Commercial Communications
Bus & Motor
STARLINK, Unknown motor
Mass
297 kg wet, ~275 kg dry
Launch date (UTC)
2022-06-17 (4 years ago)
Launch vehicle
FALCON 9
Launch site
Air Force Eastern Test Range (AFETR)
Object type
Payload
Rocket body
Debris
Shape & HBR
Box + 1 Pan, 10.1 m
Radar Cross Section
13.562 m², Large (>1 m²)

Expand to show TLE details & history
Last TLE update: 3 days ago

TLE from 3 days ago
0 STARLINK-4201
1 52856U 22062AC  26170.64026213  .00000282  00000-0  35815-4 0  9996
2 52856  53.1602 286.3826 0001079  92.9154 267.1961 15.08832611221313
Epoch: 2026-06-19T15:21Z
TLE epoch observation values (Epoch: 2026-06-19T15:21:58.648Z)
Latitude
0.00001°
Longitude
148.0219°
Altitude
540.694 km
Speed
7.593 km/s
True Right ascension
19h 05m 31s
True Declination
0° 00' 00"
Sunlit
Object was in full shadow at epoch
Visualization orbit readout
Latitude
Unknown
Longitude
Unknown
Altitude
Unknown
Speed
Unknown
Apparent Right ascension
Unknown
Apparent Declination
Unknown
Sunlit
N/A
Visualization observer readout
Local Sidereal Time
21:36:11
Azimuth
Unknown
Elevation
Unknown
Doppler factor
Unknown
Orbital elements
Apogee altitude
540.767 km
Perigee altitude
539.274 km
Semi-major axis
6,918.157 km
Eccentricity
0.00011
Inclination
53.1602°
RAAN
286.3826°
Arg. of periapsis
92.9154°
True anomaly
267.18375°
Mean anomaly
267.1961°
Eccentric anomaly
267.18993°
Mean motion
3.77188 °/min
Orbital period
95.44 mins
BSTAR
0.000035815
Loading maneuver chart data...
Computing Atmospheric mass density...
Loading historical data...
Loading historical data...
Loading historical data...
Loading historical data...
Loading historical data...
Loading historical data...
Loading historical data...

Documentation

Showing up to 5 results
|